Regional Weather Roundup
Issued by NWS

Home | Current Version | Previous Version | Graphics & Text | Print | Product List | Glossary On
Versions: 1 2 3 4 5 6 7 8 9 10 11 12 13 14 15 16 17 18 19 20 21 22 23 24 25 26 27 28 29 30 31 32 33 34 35 36 37 38 39 40 41 42 43 44 45 46 47 48 49 50
000
ASUS43 KOAX 180402
RWRNE

WEATHER ROUNDUP FOR NEBRASKA
NATIONAL WEATHER SERVICE OMAHA NE
1100 PM CDT WED SEP 17 2014

NOTES: SATELLITE DATA IS BEING USED TO AUGMENT CLOUD COVER ABOVE
       12000 FEET.
       "FAIR" INDICATES FEW OR NO CLOUDS BELOW 12,000 FEET WITH NO
       SIGNIFICANT WEATHER AND/OR OBSTRUCTIONS TO VISIBILITY.

  * THESE STATIONS DO NOT REPORT WEATHER SUCH AS RAIN...SNOW OR FOG.

NEZ001>004-019>022-054>056-180500-
NEBRASKA PANHANDLE

CITY           SKY/WX    TMP DP  RH WIND       PRES   REMARKS
SCOTTSBLUFF    CLEAR     59  48  67 CALM      29.97R
ALLIANCE       PTCLDY    60  52  74 SE9       29.97R
CHADRON        CLEAR     67  52  58 SW5       29.93S
KIMBALL        CLEAR     61  45  55 S3        30.02R
SIDNEY         PTCLDY    65  48  54 E8        30.01R
$$

NEZ057>060-069>072-079>082-180500-
SOUTHWEST NEBRASKA

CITY           SKY/WX    TMP DP  RH WIND       PRES   REMARKS
NORTH PLATTE   CLEAR     64  60  87 SE9       29.96R
IMPERIAL       PTCLDY    67  59  75 SE8       29.96R
LEXINGTON      CLEAR     61  58  92 E6        29.97R
MCCOOK         CLEAR     66  61  84 E7        29.94R
OGALLALA       MOCLDY    71  62  74 SE8       29.96S
$$

NEZ005>010-023>029-035>040-094-180500-
NORTH CENTRAL NEBRASKA

CITY           SKY/WX    TMP DP  RH WIND       PRES   REMARKS
VALENTINE      PTCLDY    63  54  72 E10       29.97S
AINSWORTH      CLEAR     61  55  81 E9        29.97S
BROKEN BOW     CLEAR     62  59  90 SE6       29.97R
O`NEILL        CLEAR     65  58  79 E8        29.98S
ORD            PTCLDY    61  58  90 SE3       29.95S
THEDFORD       CLEAR     66  59  78 SE10      29.96S
$$

NEZ041-046>049-061>064-073>077-083>087-180500-
SOUTH CENTRAL NEBRASKA

CITY           SKY/WX    TMP DP  RH WIND       PRES   REMARKS
GRAND ISLAND   PTCLDY    62  59  90 E6        29.96S
AURORA         CLEAR     62  60  94 E5        29.97R
HASTINGS       PTCLDY    68  60  75 SE10      29.95F
HEBRON         CLEAR     62  59  91 CALM      29.95R FOG
HOLDREGE       CLEAR     60  58  92 CALM      29.95R
KEARNEY *      CLEAR     61  57  88 NE7       29.96S
YORK           PTCLDY    63  59  88 E5        29.97R
$$

NEZ011>018-030>034-042>045-180500-
NORTHEAST NEBRASKA

CITY           SKY/WX    TMP DP  RH WIND       PRES   REMARKS
NORFOLK        PTCLDY    64  60  87 CALM      29.97R
ALBION         LGT RAIN  66  60  80 E3        29.97S
BLAIR          PTCLDY    65  59  81 E8        29.97R
COLUMBUS *     MOCLDY    61  57  88 CALM      29.98R
FREMONT        CLEAR     65  61  88 CALM      29.97R
TEKAMAH        CLEAR     62  58  86 CALM      29.97R
WAYNE          CLEAR     55  53  93 CALM      29.98R
$$

NEZ050>053-065>068-078-088>093-180500-
SOUTHEAST NEBRASKA

CITY           SKY/WX    TMP DP  RH WIND       PRES   REMARKS
LINCOLN        PTCLDY    67  61  81 CALM      29.97R
OMAHA EPPLEY   CLEAR     67  58  72 E9        29.97R
BEATRICE       CLEAR     64  61  89 SE3       29.96R
FALLS CITY     CLEAR     63  61  93 CALM      29.95R
NEBRASKA CITY  PTCLDY    68  57  67 SE5       29.96S
PLATTSMOUTH    PTCLDY    65  60  82 CALM      29.97R
$$

NEZ044-045-051>053-067-180500-
OMAHA AREA

CITY           SKY/WX    TMP DP  RH WIND       PRES   REMARKS
OMAHA EPPLEY   CLEAR     67  58  72 E9        29.97R
BLAIR          PTCLDY    65  59  81 E8        29.97R
FREMONT        CLEAR     65  61  88 CALM      29.97R
MILLARD        CLEAR     64  62  93 CALM      29.96R
OFFUTT AFB     CLEAR     63  63 100 E6        29.97R
PLATTSMOUTH    PTCLDY    65  60  82 CALM      29.97R
WAHOO          FAIR      62  59  88 NE3       29.97R
$$


USA.gov is the U.S. government's official web portal to all federal, state and local government web resources and services.